Location: Newark
(25.4297°S, 49.2719°W)
Time: 18:06:36
(UTC+00:00)

Vanguard 1 Rocket - Pass Details

Date: 27 November 2019
Orbit: 650 x 4226 km, 34.3° (Epoch: 13 December)

Event Time Altitude Azimuth Distance (km) Brightness Sun altitude
Rises 16:23:39 0° 279° (W) 5,995 11.8 71.4°
Reaches altitude 10° 16:26:55 10° 276° (W) 5,361 11.8 70.7°
Maximum altitude 16:45:19 72° 192° (SSW) 3,946 12.0 66.5°
Drops below altitude 10° 17:12:15 10° 107° (ESE) 7,311 11.8 60.5°
Sets 17:17:44 0° 104° (ESE) 8,140 11.9 59.2°
